Scott Air Force Base, IL

3:20 PM CDT on August 27, 2016 (GMT -0500)
Scott Air Force Base-Midamerica

Weather History for KBLV - July, 2013

Change the Weather History Date:

Thursday, July 11, 2013

  Actual Average Record
Temperature  
Mean Temperature 75 °F -  
Max Temperature 83 °F 89 °F 105 °F (1966)
Min Temperature 67 °F 67 °F 53 °F (1963)
Cooling Degree Days 10    
Growing Degree Days 25 (Base 50)    
Moisture  
Dew Point 63 °F    
Average Humidity 68    
Maximum Humidity 94    
Minimum Humidity 46    
Precipitation  
Precipitation 0.00 in - - ()
Sea Level Pressure  
Sea Level Pressure 30.03 in    
Wind  
Wind Speed 5 mph (NE)    
Max Wind Speed 13 mph    
Max Gust Speed 18 mph    
Visibility 10 miles    
Events      
Averages and records for this station are not official NWS values.
T = Trace of Precipitation, MM = Missing Value Source: NWS Daily Summary

Daily Weather History Graph

Daily Weather History Graph

Search for Another Location

Airport or City:

Trip Planner

Search our weather history database for the weather conditions in past years. The results will help you decide how hot, cold, wet, or windy it might be!

Date:

Astronomy

Jul. 11, 2013 Rise Set
Actual Time 5:44 AM CDT 8:24 PM CDT
Civil Twilight 5:13 AM CDT 8:55 PM CDT
Nautical Twilight 4:34 AM CDT 9:34 PM CDT
Astronomical Twilight 3:50 AM CDT 10:18 PM CDT
Moon 9:00 AM CDT (7/11) 10:08 PM CDT (7/11)
Length of Visible Light 15h 42m
Length of Day
14h 40m
Waxing Crescent, 11% of the Moon is Illuminated
Jul 11
Waxing Crescent
Jul 15
First Quarter
Jul 22
Full
Jul 29
Last Quarter
Aug 6
New

Hourly Weather History & Observations

Time (CDT) Temp. Heat Index Dew Point Humidity Pressure Visibility Wind Dir Wind Speed Gust Speed Precip Events Conditions
12:58 AM 73.6 °F - 68.0 °F 83% 29.98 in 10.0 mi North 2.3 mph - N/A   Clear
1:58 AM 72.3 °F - 67.6 °F 85% 29.98 in 10.0 mi Variable 4.6 mph - N/A   Clear
2:58 AM 71.1 °F - 67.3 °F 88% 29.98 in 10.0 mi North 5.8 mph - N/A   Clear
3:58 AM 70.0 °F - 66.4 °F 88% 29.99 in 10.0 mi North 5.8 mph - N/A   Clear
4:58 AM 68.5 °F - 66.2 °F 92% 30.00 in 10.0 mi Variable 4.6 mph - N/A   Clear
5:58 AM 68.0 °F - 66.2 °F 94% 30.02 in 10.0 mi North 5.8 mph - N/A   Clear
6:58 AM 69.3 °F - 65.1 °F 87% 30.03 in 10.0 mi NNE 4.6 mph - N/A   Clear
7:58 AM 71.8 °F - 64.4 °F 77% 30.04 in 10.0 mi NE 5.8 mph - N/A   Clear
8:58 AM 75.0 °F - 62.6 °F 65% 30.04 in 10.0 mi NE 6.9 mph - N/A   Clear
9:58 AM 77.0 °F - 61.2 °F 58% 30.06 in 10.0 mi ENE 10.4 mph - N/A   Clear
10:58 AM 78.4 °F - 60.1 °F 53% 30.07 in 10.0 mi ENE 10.4 mph - N/A   Clear
11:58 AM 80.2 °F 81.2 °F 61.0 °F 52% 30.06 in 10.0 mi NE 6.9 mph - N/A   Partly Cloudy
12:58 PM 81.1 °F 81.6 °F 59.7 °F 48% 30.06 in 10.0 mi ENE 12.7 mph - N/A   Partly Cloudy
1:58 PM 81.9 °F 82.2 °F 59.7 °F 47% 30.06 in 10.0 mi NE 8.1 mph 18.4 mph N/A   Clear
2:58 PM 82.6 °F 82.9 °F 60.4 °F 47% 30.06 in 10.0 mi ENE 9.2 mph - N/A   Partly Cloudy
3:58 PM 83.1 °F 83.3 °F 60.1 °F 46% 30.05 in 10.0 mi Variable 5.8 mph - N/A   Partly Cloudy
4:58 PM 82.0 °F 82.4 °F 60.1 °F 47% 30.05 in 10.0 mi NE 8.1 mph - N/A   Partly Cloudy
5:58 PM 80.8 °F 81.5 °F 60.6 °F 50% 30.03 in 10.0 mi ENE 6.9 mph - N/A   Scattered Clouds
6:58 PM 79.9 °F - 61.2 °F 53% 30.03 in 10.0 mi NE 5.8 mph - N/A   Clear
7:58 PM 76.5 °F - 62.2 °F 61% 30.03 in 10.0 mi NE 4.6 mph - N/A   Clear
8:58 PM 72.7 °F - 62.2 °F 70% 30.02 in 10.0 mi NE 3.5 mph - N/A   Clear
9:58 PM 70.2 °F - 62.8 °F 77% 30.03 in 10.0 mi NNE 2.3 mph - N/A   Clear
10:58 PM 67.8 °F - 63.7 °F 87% 30.04 in 10.0 mi North 2.3 mph - N/A   Clear
11:58 PM 67.3 °F - 63.0 °F 86% 30.06 in 10.0 mi North 2.3 mph - N/A   Clear